Location: Austin
(30.3000°N, 97.7500°W)
Time: 03:36:15
(UTC-06:00)

CZ-4B R/B - Pass Details

Date: 20 November 2023
Orbit: 486 x 618 km, 97.9° (Epoch: 04 December)

Event Time Altitude Azimuth Distance (km) Brightness Sun altitude
Rises 18:14:50 0° 171° (S) 2,661 7.4 -9.5°
Reaches altitude 10° 18:16:59 10° 174° (S) 1,754 6.5 -9.9°
Maximum altitude 18:20:44 71° 258° (WSW) 541 4.0 -10.7°
Drops below altitude 10° 18:24:23 10° 343° (NNW) 1,705 6.3 -11.4°
Sets 18:26:26 0° 346° (NNW) 2,579 7.2 -11.9°
